Date String (YYYY-MM-DD hh:mm:ss) UTC,Instrument flags,Ambient pressure (hPa),Sample flow (lpm),Bypass flow (lpm),Sample temperature (°C),Ambient temperature (°C),ASC tube jacket temperature (°C),LED temperature (°C),Box temperature (°C),Sample RH (%),Span deviation,Mass concentration (μg/m³),Mass concentration (μg/m³),Mass concentration (μg/m³)
DateTimeUTC,F1_M11,P_M11,Q1_M11,Q2_M11,T1_M11,T2_M11,T3_M11,T4_M11,T5_M11,U1_M11,ZSPAN_M11,X0_M11,X2_M11,X1_M11
2022-04-28 16:00:00,,0821.8,4.99,0.00,28.5,27.8,00.0,37.3,30.3,13.0,0000.0,0026.51,0009.31,0005.57
2022-04-28 16:01:00,,0821.8,5.01,0.00,28.5,27.9,00.0,37.3,30.3,12.1,0000.0,0026.63,0009.28,0005.54
2022-04-28 16:02:00,,0821.8,4.98,0.00,28.5,27.9,00.0,37.3,30.3,11.8,0000.3,0026.56,0009.34,0005.55
2022-04-28 16:03:00,,0821.9,5.00,0.00,28.5,27.9,00.0,37.3,30.4,11.8,0002.2,0026.24,0009.30,0005.54
2022-04-28 16:04:00,,0821.8,4.99,0.00,28.5,27.9,00.0,37.3,30.4,12.4,0002.1,0026.86,0009.37,0005.54
2022-04-28 16:05:00,,0821.9,4.99,0.00,28.6,27.9,00.0,37.4,30.4,12.4,0000.0,0026.49,0009.45,0005.53
2022-04-28 16:06:00,,0821.9,5.01,0.00,28.6,27.9,00.0,37.4,30.4,11.5,0000.5,0026.18,0009.39,0005.51
2022-04-28 16:07:00,,0821.8,5.00,0.00,28.6,27.9,00.0,37.4,30.4,10.9,0001.6,0025.87,0009.27,0005.47
2022-04-28 16:08:00,,0821.8,4.98,0.00,28.6,28.0,00.0,37.4,30.5,11.6,0001.3,0025.06,0009.22,0005.43
2022-04-28 16:09:00,,0821.8,5.02,0.00,28.6,28.0,00.0,37.4,30.5,11.7,0000.5,0024.98,0009.13,0005.39
2022-04-28 16:10:00,,0821.8,4.99,0.00,28.6,28.0,00.0,37.4,30.5,11.8,0000.4,0024.21,0009.01,0005.36
2022-04-28 16:11:00,,0821.7,4.99,0.00,28.7,28.0,00.0,37.5,30.5,11.7,0000.9,0024.50,0009.01,0005.33
2022-04-28 16:12:00,,0821.7,5.01,0.00,28.7,28.0,00.0,37.5,30.5,11.4,0001.3,0024.78,0008.98,0005.30
2022-04-28 16:13:00,,0821.7,4.99,0.00,28.7,28.0,00.0,37.5,30.5,11.8,0002.2,0024.57,0008.92,0005.27
2022-04-28 16:14:00,,0821.7,5.01,0.00,28.7,28.1,00.0,37.5,30.5,12.2,0002.1,0024.09,0008.90,0005.26
2022-04-28 16:15:00,,0821.7,5.00,0.00,28.7,28.1,00.0,37.5,30.6,12.1,0002.4,0024.76,0008.98,0005.25
2022-04-28 16:16:00,,0821.7,5.00,0.00,28.7,28.1,00.0,37.5,30.6,12.0,0002.7,0026.55,0009.02,0005.25
2022-04-28 16:17:00,,0821.7,4.99,0.00,28.8,28.1,00.0,37.5,30.6,12.2,0002.5,0028.80,0009.13,0005.24
2022-04-28 16:18:00,,0821.7,5.01,0.00,28.8,28.2,00.0,37.6,30.6,12.0,0002.0,0029.46,0009.35,0005.27
2022-04-28 16:19:00,,0821.7,5.01,0.00,28.8,28.2,00.0,37.6,30.7,11.7,0001.8,0031.28,0009.55,0005.29
2022-04-28 16:20:00,,0821.7,4.99,0.00,28.8,28.2,00.0,37.6,30.7,11.6,0002.1,0034.99,0009.76,0005.31
2022-04-28 16:21:00,,0821.7,5.01,0.00,28.9,28.2,00.0,37.6,30.7,11.9,0002.5,0040.03,0009.91,0005.32
2022-04-28 16:22:00,,0821.7,4.99,0.00,28.9,28.3,00.0,37.7,30.7,11.4,0002.3,0041.32,0010.03,0005.31
2022-04-28 16:23:00,,0821.7,5.01,0.00,28.9,28.3,00.0,37.7,30.8,11.3,0001.8,0041.81,0009.99,0005.31
2022-04-28 16:24:00,,0821.6,5.00,0.00,28.9,28.3,00.0,37.7,30.8,10.7,0001.3,0043.70,0009.93,0005.29
2022-04-28 16:25:00,,0821.7,4.99,0.00,29.0,28.3,00.0,37.7,30.8,10.7,0001.5,0042.99,0009.82,0005.26
2022-04-28 16:26:00,,0821.7,5.01,0.00,29.0,28.3,00.0,37.7,30.8,10.9,0001.5,0041.63,0009.63,0005.21
2022-04-28 16:27:00,,0821.7,5.01,0.00,29.0,28.3,00.0,37.8,30.8,10.9,0001.9,0038.83,0009.37,0005.15
2022-04-28 16:28:00,,0821.7,4.99,0.00,29.0,28.4,00.0,37.8,30.8,10.7,0002.5,0037.63,0009.27,0005.11
2022-04-28 16:29:00,,0821.7,5.01,0.00,29.0,28.4,00.0,37.8,30.8,10.9,0003.0,0036.75,0009.09,0005.07
2022-04-28 16:30:00,,0821.7,4.98,0.00,29.1,28.4,00.0,37.8,30.9,10.8,0002.7,0034.09,0008.79,0004.99
2022-04-28 16:31:00,,0821.7,4.99,0.00,29.1,28.4,00.0,37.8,30.9,10.8,0003.0,0030.43,0008.52,0004.92
2022-04-28 16:32:00,,0821.7,5.01,0.00,29.1,28.5,00.0,37.9,31.0,10.9,0002.5,0025.64,0008.31,0004.85
2022-04-28 16:33:00,,0821.7,4.99,0.00,29.2,28.5,00.0,37.9,31.0,10.9,0002.7,0023.53,0008.11,0004.82
2022-04-28 16:34:00,,0821.7,5.00,0.00,29.2,28.5,00.0,37.9,31.0,10.9,0002.1,0022.96,0008.04,0004.81
2022-04-28 16:35:00,,0821.7,5.01,0.00,29.2,28.5,00.0,37.9,31.0,10.8,0002.0,0021.52,0007.97,0004.78
2022-04-28 16:36:00,,0821.7,4.99,0.00,29.2,28.5,00.0,38.0,31.1,10.9,0001.1,0022.13,0008.01,0004.79
2022-04-28 16:37:00,,0821.7,5.00,0.00,29.2,28.6,00.0,38.0,31.1,10.9,0001.6,0022.61,0008.05,0004.80
2022-04-28 16:38:00,,0821.7,5.00,0.00,29.3,28.6,00.0,38.0,31.1,11.0,0000.5,0022.89,0008.09,0004.80
2022-04-28 16:39:00,,0821.7,4.99,0.00,29.3,28.6,00.0,38.0,31.1,11.0,0000.2,0022.08,0007.98,0004.77
2022-04-28 16:40:00,,0821.7,5.01,0.00,29.3,28.6,00.0,38.0,31.1,11.0,0000.0,0021.62,0007.96,0004.74
2022-04-28 16:41:00,,0821.7,4.99,0.00,29.3,28.6,00.0,38.1,31.1,10.9,0000.6,0021.86,0007.97,0004.75
2022-04-28 16:42:00,,0821.7,4.99,0.00,29.3,28.6,00.0,38.1,31.2,11.0,0002.9,0022.42,0008.01,0004.77
2022-04-28 16:43:00,,0821.7,5.00,0.00,29.3,28.7,00.0,38.1,31.2,10.9,0003.0,0022.30,0008.05,0004.78
2022-04-28 16:44:00,,0821.7,4.99,0.00,29.3,28.7,00.0,38.1,31.2,11.0,0002.3,0023.35,0008.14,0004.79
2022-04-28 16:45:00,,0821.7,5.00,0.00,29.4,28.7,00.0,38.1,31.2,11.2,0000.0,0023.74,0008.20,0004.78
2022-04-28 16:46:00,,0821.8,5.00,0.00,29.4,28.7,00.0,38.2,31.2,11.3,0000.0,0023.52,0008.25,0004.79
2022-04-28 16:47:00,,0821.7,4.99,0.00,29.4,28.7,00.0,38.2,31.2,11.3,0000.0,0023.04,0008.30,0004.79
2022-04-28 16:48:00,,0821.7,5.01,0.00,29.4,28.7,00.0,38.2,31.2,11.5,0000.0,0022.35,0008.30,0004.79
2022-04-28 16:49:00,,0821.7,4.99,0.00,29.4,28.7,00.0,38.2,31.2,11.2,0000.0,0022.18,0008.28,0004.78
2022-04-28 16:50:00,,0821.7,5.01,0.00,29.4,28.7,00.0,38.2,31.2,11.2,0000.0,0022.18,0008.35,0004.78
2022-04-28 16:51:00,,0821.6,5.01,0.00,29.4,28.8,00.0,38.2,31.3,11.2,0000.5,0022.55,0008.35,0004.80
2022-04-28 16:52:00,,0821.7,4.98,0.00,29.4,28.8,00.0,38.2,31.3,11.0,0000.8,0023.54,0008.35,0004.81
2022-04-28 16:53:00,,0821.7,5.00,0.00,29.5,28.8,00.0,38.3,31.3,11.3,0000.0,0022.74,0008.33,0004.81
2022-04-28 16:54:00,,0821.7,5.00,0.00,29.5,28.8,00.0,38.3,31.3,11.0,0000.0,0024.10,0008.32,0004.81
2022-04-28 16:55:00,,0821.7,5.00,0.00,29.5,28.8,00.0,38.3,31.3,11.2,0000.0,0023.32,0008.21,0004.81
2022-04-28 16:56:00,,0821.7,4.99,0.00,29.5,28.9,00.0,38.3,31.4,11.3,0000.5,0022.90,0008.21,0004.80
2022-04-28 16:57:00,,0821.7,5.00,0.00,29.5,28.9,00.0,38.3,31.4,11.2,0000.8,0023.62,0008.25,0004.78
2022-04-28 16:58:00,,0821.7,5.01,0.00,29.6,28.9,00.0,38.4,31.4,11.1,0001.6,0023.64,0008.20,0004.77
2022-04-28 16:59:00,,0821.7,4.99,0.00,29.6,28.9,00.0,38.4,31.4,11.2,0001.9,0023.32,0008.21,0004.76
